| time (UTC) | temp F | wind direction | speed MPH | gust MPH | rain 1hr in | rain 24hr in | rain mn in | humidity % | barometer mb |
| 20260503190004 | 55 | 157 | 7.0 | 17.0 | 0.00 | 0.55 | 0.00 | 85 | 1011.4 |
| 20260503185404 | 55 | 157 | 7.0 | 17.0 | 0.00 | 0.55 | 0.00 | 85 | 1011.5 |
| 20260503184504 | 56 | 157 | 8.0 | 18.0 | 0.00 | 0.55 | 0.00 | 85 | 1011.6 |
| 20260503183604 | 56 | 157 | 7.0 | 18.0 | 0.00 | 0.55 | 0.00 | 85 | 1011.5 |
| 20260503182704 | 55 | 157 | 6.0 | 14.0 | 0.00 | 0.55 | 0.00 | 85 | 1011.5 |
| 20260503181804 | 55 | 157 | 6.0 | 16.0 | 0.00 | 0.55 | 0.00 | 85 | 1011.8 |
| 20260503180904 | 55 | 157 | 6.0 | 12.0 | 0.00 | 0.55 | 0.00 | 84 | 1011.7 |
| 20260503180004 | 56 | 157 | 6.0 | 12.0 | 0.00 | 0.55 | 0.00 | 85 | 1011.8 |
| 20260503175425 | 56 | 157 | 7.0 | 14.0 | 0.00 | 0.55 | 0.00 | 85 | 1011.8 |
| 20260503174504 | 56 | 157 | 7.0 | 16.0 | 0.00 | 0.55 | 0.00 | 85 | 1011.9 |
| 20260503173604 | 56 | 157 | 7.0 | 13.0 | 0.00 | 0.55 | 0.00 | 85 | 1011.9 |
| 20260503172725 | 56 | 157 | 6.0 | 17.0 | 0.00 | 0.55 | 0.00 | 85 | 1012.0 |
| 20260503171804 | 56 | 157 | 6.0 | 13.0 | 0.00 | 0.55 | 0.00 | 85 | 1011.9 |
| 20260503170904 | 56 | 157 | 6.0 | 15.0 | 0.00 | 0.55 | 0.00 | 85 | 1012.0 |
| 20260503150904 | 56 | 157 | 7.0 | 17.0 | 0.00 | 0.55 | 0.00 | 83 | 1012.2 |
| 20260503130904 | 59 | 157 | 8.0 | 17.0 | 0.00 | 0.55 | 0.55 | 78 | 1012.7 |
| 20260503080904 | 58 | 157 | 1.0 | 4.0 | 0.00 | 0.55 | 0.55 | 83 | 1011.3 |
| 20260503072704 | 59 | 157 | 2.0 | 6.0 | 0.00 | 0.55 | 0.55 | 86 | 1011.3 |
| 20260503071804 | 59 | 157 | 2.0 | 6.0 | 0.00 | 0.55 | 0.55 | 86 | 1011.2 |
| 20260503070904 | 59 | 157 | 1.0 | 6.0 | 0.00 | 0.55 | 0.55 | 87 | 1010.9 |
| 20260503054525 | 61 | 157 | 6.0 | 16.0 | 0.09 | 0.55 | 0.55 | 89 | 1010.6 |
| 20260503053625 | 62 | 157 | 5.0 | 14.0 | 0.09 | 0.55 | 0.55 | 89 | 1010.7 |
| 20260503052704 | 64 | 157 | 4.0 | 10.0 | 0.05 | 0.51 | 0.51 | 89 | 1010.3 |
| 20260503051804 | 64 | 157 | 7.0 | 12.0 | 0.03 | 0.49 | 0.49 | 87 | 1010.3 |
| 20260503050904 | 65 | 157 | 8.0 | 18.0 | 0.01 | 0.47 | 0.47 | 86 | 1010.0 |
| 20260503050025 | 66 | 157 | 8.0 | 16.0 | 0.01 | 0.46 | 0.46 | 84 | 1010.1 |
| 20260503045425 | 66 | 157 | 8.0 | 16.0 | 0.01 | 0.46 | 0.46 | 83 | 1010.1 |
| 20260503044504 | 66 | 157 | 8.0 | 24.0 | 0.01 | 0.46 | 0.46 | 83 | 1010.0 |
| 20260503043603 | 66 | 157 | 8.0 | 18.0 | 0.02 | 0.46 | 0.46 | 84 | 1009.9 |
| 20260503042704 | 66 | 157 | 8.0 | 18.0 | 0.02 | 0.46 | 0.46 | 84 | 1009.8 |
| 20260503041804 | 66 | 157 | 7.0 | 16.0 | 0.03 | 0.46 | 0.46 | 85 | 1009.8 |
| 20260503040904 | 65 | 157 | 7.0 | 17.0 | 0.03 | 0.46 | 0.46 | 87 | 1010.0 |
| 20260503040024 | 65 | 157 | 6.0 | 16.0 | 0.02 | 0.45 | 0.45 | 88 | 1009.9 |
| 20260503035404 | 65 | 157 | 7.0 | 15.0 | 0.02 | 0.45 | 0.45 | 89 | 1009.9 |
| 20260503034503 | 64 | 157 | 8.0 | 19.0 | 0.02 | 0.45 | 0.45 | 87 | 1010.0 |
| 20260503033604 | 64 | 157 | 8.0 | 21.0 | 0.01 | 0.44 | 0.44 | 86 | 1010.0 |
| 20260503032704 | 64 | 157 | 9.0 | 19.0 | 0.01 | 0.44 | 0.44 | 86 | 1009.9 |
| 20260503031804 | 63 | 157 | 8.0 | 18.0 | 0.00 | 0.43 | 0.43 | 87 | 1009.9 |
| 20260503030904 | 63 | 157 | 8.0 | 20.0 | 0.01 | 0.43 | 0.43 | 88 | 1010.2 |
| 20260503030004 | 63 | 157 | 8.0 | 21.0 | 0.04 | 0.43 | 0.43 | 89 | 1010.0 |
| 20260503025404 | 63 | 157 | 9.0 | 20.0 | 0.05 | 0.43 | 0.43 | 91 | 1010.1 |
| 20260503024503 | 63 | 157 | 8.0 | 22.0 | 0.08 | 0.43 | 0.43 | 92 | 1010.1 |
| 20260503023603 | 63 | 157 | 7.0 | 20.0 | 0.13 | 0.43 | 0.43 | 92 | 1010.1 |
| 20260503022704 | 63 | 157 | 8.0 | 21.0 | 0.19 | 0.43 | 0.43 | 92 | 1010.0 |
| 20260503021804 | 62 | 157 | 9.0 | 21.0 | 0.23 | 0.43 | 0.43 | 92 | 1009.9 |
| 20260503020904 | 62 | 157 | 8.0 | 27.0 | 0.29 | 0.42 | 0.42 | 92 | 1009.5 |
| 20260503020004 | 62 | 157 | 8.0 | 21.0 | 0.30 | 0.39 | 0.39 | 91 | 1010.6 |
| 20260503015404 | 62 | 157 | 8.0 | 18.0 | 0.29 | 0.38 | 0.38 | 91 | 1010.7 |
| 20260503014525 | 62 | 157 | 8.0 | 19.0 | 0.27 | 0.35 | 0.35 | 90 | 1011.0 |
| 20260503013624 | 63 | 157 | 8.0 | 21.0 | 0.26 | 0.31 | 0.31 | 90 | 1011.9 |
| 20260503012724 | 63 | 157 | 8.0 | 20.0 | 0.23 | 0.25 | 0.25 | 90 | 1012.4 |
| 20260503011804 | 63 | 157 | 7.0 | 19.0 | 0.20 | 0.21 | 0.21 | 89 | 1012.0 |
| 20260503010904 | 63 | 157 | 6.0 | 18.0 | 0.13 | 0.14 | 0.14 | 88 | 1012.2 |
| 20260503010004 | 64 | 157 | 5.0 | 15.0 | 0.09 | 0.10 | 0.10 | 87 | 1011.8 |
| 20260503005404 | 64 | 157 | 7.0 | 14.0 | 0.09 | 0.10 | 0.10 | 86 | 1011.7 |
| 20260503004504 | 65 | 157 | 8.0 | 26.0 | 0.08 | 0.09 | 0.09 | 84 | 1012.0 |
| 20260503003604 | 66 | 157 | 6.0 | 17.0 | 0.04 | 0.05 | 0.05 | 81 | 1012.3 |
| 20260503002704 | 67 | 157 | 5.0 | 13.0 | 0.01 | 0.02 | 0.02 | 79 | 1011.7 |
| 20260503001804 | 66 | 157 | 5.0 | 11.0 | 0.00 | 0.01 | 0.01 | 78 | 1011.9 |
| 20260503000925 | 66 | 157 | 6.0 | 10.0 | 0.00 | 0.01 | 0.01 | 78 | 1011.9 |
| 20260503000004 | 67 | 157 | 7.0 | 19.0 | 0.00 | 0.01 | 0.01 | 78 | 1011.9 |
| 20260502235404 | 67 | 157 | 6.0 | 21.0 | 0.00 | 0.01 | 0.01 | 76 | 1011.6 |
| 20260502234504 | 67 | 157 | 7.0 | 14.0 | 0.00 | 0.01 | 0.01 | 76 | 1011.6 |
| 20260502233603 | 67 | 157 | 8.0 | 18.0 | 0.00 | 0.01 | 0.01 | 76 | 1011.6 |
| 20260502232704 | 67 | 157 | 9.0 | 19.0 | 0.00 | 0.01 | 0.01 | 76 | 1011.9 |
| 20260502231804 | 67 | 157 | 9.0 | 20.0 | 0.00 | 0.01 | 0.01 | 76 | 1011.9 |
| 20260502230904 | 68 | 157 | 9.0 | 19.0 | 0.00 | 0.01 | 0.01 | 75 | 1011.7 |
| 20260502230004 | 68 | 157 | 9.0 | 24.0 | 0.00 | 0.01 | 0.01 | 76 | 1011.7 |
| 20260502225404 | 68 | 157 | 8.0 | 24.0 | 0.00 | 0.01 | 0.01 | 76 | 1011.7 |
| 20260502224503 | 67 | 157 | 8.0 | 19.0 | 0.00 | 0.01 | 0.01 | 78 | 1011.7 |
| 20260502223603 | 66 | 157 | 6.0 | 15.0 | 0.00 | 0.01 | 0.01 | 79 | 1011.8 |
| 20260502222703 | 65 | 157 | 7.0 | 16.0 | 0.00 | 0.01 | 0.01 | 80 | 1011.9 |
| 20260502221803 | 65 | 157 | 7.0 | 16.0 | 0.00 | 0.01 | 0.01 | 82 | 1011.8 |
| 20260502220903 | 64 | 157 | 7.0 | 18.0 | 0.01 | 0.01 | 0.01 | 82 | 1012.1 |
| 20260502220005 | 64 | 157 | 6.0 | 13.0 | 0.01 | 0.01 | 0.01 | 83 | 1012.2 |
| 20260502215404 | 64 | 157 | 6.0 | 15.0 | 0.01 | 0.01 | 0.01 | 83 | 1012.2 |
| 20260502214504 | 64 | 157 | 7.0 | 20.0 | 0.01 | 0.01 | 0.01 | 83 | 1012.0 |
| 20260502213604 | 64 | 157 | 6.0 | 14.0 | 0.01 | 0.01 | 0.01 | 83 | 1011.7 |
| 20260502212704 | 64 | 157 | 7.0 | 15.0 | 0.01 | 0.01 | 0.01 | 83 | 1012.0 |
| 20260502211805 | 64 | 157 | 7.0 | 20.0 | 0.01 | 0.01 | 0.01 | 82 | 1012.1 |
| 20260502210926 | 65 | 157 | 6.0 | 17.0 | 0.00 | 0.00 | 0.00 | 81 | 1012.5 |
| 20260502210004 | 65 | 157 | 7.0 | 17.0 | 0.00 | 0.00 | 0.00 | 80 | 1012.7 |
| 20260502205425 | 65 | 157 | 7.0 | 17.0 | 0.00 | 0.00 | 0.00 | 80 | 1012.9 |
| 20260502204504 | 65 | 157 | 7.0 | 17.0 | 0.00 | 0.00 | 0.00 | 80 | 1012.7 |
| 20260502203604 | 66 | 157 | 8.0 | 16.0 | 0.00 | 0.00 | 0.00 | 78 | 1012.9 |
| 20260502202705 | 66 | 157 | 8.0 | 23.0 | 0.00 | 0.00 | 0.00 | 76 | 1012.9 |
| 20260502201804 | 67 | 157 | 8.0 | 23.0 | 0.00 | 0.00 | 0.00 | 73 | 1013.0 |
| 20260502200904 | 67 | 157 | 8.0 | 21.0 | 0.00 | 0.00 | 0.00 | 73 | 1012.7 |
| 20260502200004 | 67 | 157 | 8.0 | 18.0 | 0.00 | 0.00 | 0.00 | 72 | 1012.9 |
| 20260502195404 | 67 | 157 | 8.0 | 17.0 | 0.00 | 0.00 | 0.00 | 72 | 1012.8 |
| 20260502194504 | 68 | 157 | 7.0 | 19.0 | 0.00 | 0.00 | 0.00 | 71 | 1012.8 |
| 20260502193604 | 68 | 157 | 7.0 | 19.0 | 0.00 | 0.00 | 0.00 | 69 | 1012.8 |
| 20260502192704 | 68 | 157 | 8.0 | 19.0 | 0.00 | 0.00 | 0.00 | 69 | 1012.6 |
| 20260502191804 | 69 | 157 | 8.0 | 19.0 | 0.00 | 0.00 | 0.00 | 68 | 1012.6 |
| 20260502190904 | 69 | 157 | 9.0 | 23.0 | 0.00 | 0.00 | 0.00 | 67 | 1012.5 |